FW2265 Weather Reports


Display with metric or nautical units.
time (UTC)temp
F
wind
direction
speed
MPH
gust
MPH
rain 1hr
in
rain 24hr
in
rain mn
in
humidity
%
barometer
mb
20260902051141 80 225 0.0 0.0 0.00 0.04 0.00 88 1014.6
20260902050140 79 225 0.0 0.0 0.00 0.04 0.00 88 1014.6
20260902045146 80 225 0.0 0.0 0.00 0.04 0.04 87 1014.6
20260902044146 80 225 0.0 0.0 0.00 0.04 0.04 87 1014.7
20260902043147 80 225 0.0 0.0 0.00 0.04 0.04 86 1014.6
20260902042246 80 225 0.0 1.0 0.00 0.04 0.04 87 1014.4
20260902040346 79 225 0.0 0.0 0.00 0.04 0.04 87 1014.7
20260902035346 79 225 0.0 0.0 0.00 0.04 0.04 88 1014.6
20260902034347 79 225 0.0 0.0 0.00 0.04 0.04 87 1014.7
20260902033248 79 225 0.0 0.0 0.00 0.04 0.04 87 1014.8
20260902032247 79 225 0.0 0.0 0.00 0.04 0.04 87 1014.6
20260902031245 79 225 0.0 0.0 0.00 0.04 0.04 86 1014.3
20260902030246 79 225 0.0 1.0 0.00 0.04 0.04 87 1014.3
20260902025346 79 225 0.0 0.0 0.00 0.04 0.04 86 1014.3
20260902024349 79 225 0.0 0.0 0.00 0.04 0.04 87 1014.0
20260902023346 79 225 0.0 0.0 0.00 0.04 0.04 87 1013.8
20260902021447 79 225 0.0 0.0 0.00 0.04 0.04 87 1013.7
20260902020546 79 225 1.0 1.0 0.00 0.04 0.04 87 1013.4
20260902015644 79 225 0.0 0.0 0.00 0.04 0.04 87 1013.4
20260902014648 79 225 0.0 0.0 0.00 0.04 0.04 87 1013.4
20260902012747 79 225 0.0 0.0 0.00 0.04 0.04 87 1013.1
20260902011746 80 225 0.0 0.0 0.00 0.04 0.04 86 1013.0
20260902010745 80 225 0.0 0.0 0.00 0.04 0.04 86 1013.1
20260902005749 80 225 0.0 0.0 0.00 0.04 0.04 84 1012.9
20260902004846 80 225 0.0 1.0 0.00 0.04 0.04 85 1013.1
20260902002945 80 225 0.0 0.0 0.00 0.04 0.04 83 1013.3
20260902001947 80 225 0.0 0.0 0.00 0.04 0.04 84 1013.3
20260902000046 81 225 0.0 1.0 0.00 0.04 0.04 83 1013.5
20260901234147 81 225 0.0 0.0 0.00 0.04 0.04 84 1013.1
20260901233147 81 225 0.0 0.0 0.00 0.04 0.04 83 1013.2
20260901232246 81 180 0.0 0.0 0.00 0.04 0.04 84 1013.2
20260901231248 81 180 0.0 0.0 0.00 0.04 0.04 85 1013.5
20260901230246 81 180 0.0 1.0 0.00 0.04 0.04 85 1013.5
20260901225344 81 67 0.0 0.0 0.00 0.04 0.04 86 1013.6
20260901224345 82 180 0.0 0.0 0.00 0.04 0.04 86 1013.8
20260901223346 82 157 0.0 0.0 0.00 0.04 0.04 85 1013.7
20260901222344 82 180 0.0 0.0 0.01 0.04 0.04 87 1013.6
20260901221348 82 202 0.0 0.0 0.01 0.04 0.04 87 1013.6
20260901220345 82 202 0.0 0.0 0.01 0.04 0.04 87 1013.4
20260901214346 83 202 0.0 0.0 0.01 0.04 0.04 86 1013.5
20260901213347 83 202 0.0 0.0 0.01 0.04 0.03 82 1013.9
20260901212346 84 202 0.0 0.0 0.00 0.03 0.03 80 1014.3
20260901211347 84 202 0.0 0.0 0.00 0.03 0.03 79 1014.4
20260901210347 83 202 0.0 0.0 0.00 0.03 0.03 81 1014.2
20260901205347 83 202 0.0 0.0 0.00 0.03 0.03 80 1014.0
20260901204446 83 202 0.0 0.0 0.00 0.03 0.03 81 1014.0
20260901203445 83 180 0.0 0.0 0.00 0.03 0.03 81 1013.8
20260901202446 83 225 0.0 0.0 0.01 0.04 0.03 82 1013.9
20260901201447 82 202 0.0 0.0 0.01 0.05 0.03 84 1014.0
20260901200545 82 202 0.0 0.0 0.01 0.05 0.03 85 1014.3
20260901195545 81 202 0.0 0.0 0.01 0.05 0.03 85 1014.4
20260901194545 81 202 0.0 0.0 0.01 0.05 0.03 85 1014.8
20260901193545 81 202 0.0 0.0 0.01 0.05 0.03 85 1014.9
20260901192545 82 202 0.0 1.0 0.01 0.04 0.02 87 1015.0
20260901191544 81 202 0.0 0.0 0.01 0.04 0.02 88 1015.2
20260901190644 81 202 0.0 0.0 0.01 0.04 0.02 88 1015.2
20260901185647 81 202 0.0 0.0 0.01 0.04 0.02 85 1015.4
20260901184648 82 202 0.0 1.0 0.01 0.04 0.02 85 1015.5
20260901182745 82 202 0.0 0.0 0.00 0.03 0.01 83 1015.5
20260901181745 82 202 0.0 0.0 0.01 0.03 0.01 83 1015.4
20260901180745 82 180 0.0 0.0 0.01 0.03 0.01 84 1015.6
20260901175749 82 135 0.0 0.0 0.01 0.03 0.01 84 1015.7
20260901173844 82 180 0.0 0.0 0.01 0.03 0.01 84 1015.9
20260901172846 82 135 0.0 0.0 0.01 0.03 0.01 82 1016.2
20260901171847 82 90 0.0 0.0 0.00 0.02 0.00 81 1016.5
20260901170946 83 67 0.0 0.0 0.00 0.08 0.00 80 1016.9
20260901170045 83 45 0.0 0.0 0.00 0.11 0.00 77 1016.8
20260901164145 84 109 0.0 0.0 0.00 0.11 0.00 73 1016.8
20260901163147 85 98 0.0 3.0 0.00 0.11 0.00 74 1016.9
20260901162245 85 85 0.0 0.0 0.00 0.11 0.00 73 1016.9
20260901160245 85 22 0.0 1.0 0.00 0.11 0.00 74 1016.9
20260901155246 85 51 1.0 4.0 0.00 0.11 0.00 74 1016.8
20260901153247 85 112 0.0 0.0 0.00 0.11 0.00 75 1016.3
20260901152344 85 35 1.0 4.0 0.00 0.11 0.00 76 1016.4
20260901151346 84 88 0.0 0.0 0.00 0.11 0.00 77 1016.4
20260901150347 84 225 0.0 0.0 0.00 0.11 0.00 78 1016.4
20260901145346 84 225 0.0 0.0 0.00 0.11 0.00 79 1016.4
20260901144348 83 69 0.0 4.0 0.00 0.11 0.00 80 1016.3
20260901143445 83 180 0.0 0.0 0.00 0.11 0.00 81 1016.3
20260901142444 82 149 0.0 1.0 0.00 0.11 0.00 82 1016.4
20260901141544 82 45 0.0 0.0 0.00 0.11 0.00 82 1016.5
20260901135544 81 180 0.0 0.0 0.00 0.11 0.00 86 1016.1
20260901134544 81 180 0.0 0.0 0.00 0.11 0.00 86 1016.3
20260901133547 81 157 0.0 0.0 0.00 0.11 0.00 86 1016.4
20260901131644 80 154 0.0 0.0 0.00 0.11 0.00 89 1016.3
20260901130645 80 180 0.0 0.0 0.00 0.11 0.00 89 1016.2
20260901125744 79 180 0.0 0.0 0.00 0.11 0.00 90 1016.1
20260901124746 79 67 0.0 0.0 0.00 0.11 0.00 91 1016.1
20260901123746 79 202 0.0 0.0 0.00 0.11 0.00 91 1016.1
20260901122746 78 202 0.0 0.0 0.00 0.11 0.00 93 1015.7
20260901121747 78 202 0.0 0.0 0.00 0.11 0.00 94 1015.5
20260901120844 78 202 0.0 0.0 0.00 0.11 0.00 93 1015.4
20260901114846 78 202 0.0 0.0 0.00 0.11 0.00 94 1015.3
20260901113945 78 202 0.0 0.0 0.00 0.11 0.00 95 1015.3
20260901112946 78 202 0.0 0.0 0.00 0.11 0.00 95 1015.4
20260901111944 78 202 0.0 0.0 0.00 0.11 0.00 95 1015.4
20260901110946 78 202 0.0 0.0 0.00 0.11 0.00 94 1015.3
20260901105947 78 202 0.0 0.0 0.00 0.11 0.00 94 1015.2
20260901105044 78 202 0.0 0.0 0.00 0.11 0.00 94 1015.2
20260901104046 78 202 0.0 0.0 0.00 0.11 0.00 94 1015.3
20260901103145 78 202 0.0 0.0 0.00 0.11 0.00 94 1015.2
20260901102046 78 202 0.0 0.0 0.00 0.11 0.00 94 1015.2
20260901095248 78 202 0.0 0.0 0.00 0.11 0.00 94 1015.1
20260901093345 78 202 0.0 0.0 0.00 0.11 0.00 93 1015.4
20260901092344 78 202 0.0 0.0 0.00 0.11 0.00 94 1015.4
20260901092247 78 202 0.0 0.0 0.00 0.11 0.00 94 1015.4
20260901091244 78 202 0.0 0.0 0.00 0.11 0.00 94 1015.4
20260901085245 78 202 0.0 0.0 0.00 0.11 0.00 94 1015.7
20260901084248 78 202 0.0 0.0 0.00 0.11 0.00 94 1015.7
20260901083345 78 202 0.0 0.0 0.00 0.11 0.00 94 1015.4
20260901081346 78 202 0.0 0.0 0.00 0.11 0.00 93 1015.3
20260901080346 78 202 0.0 0.0 0.00 0.11 0.00 92 1015.4
20260901074345 79 202 0.0 0.0 0.00 0.11 0.00 92 1015.4
20260901073345 79 202 0.0 0.0 0.00 0.11 0.00 92 1015.5
20260901072347 79 202 0.0 0.0 0.00 0.11 0.00 92 1015.4
20260901070445 79 202 0.0 0.0 0.00 0.11 0.00 91 1015.8
20260901065446 79 202 0.0 0.0 0.00 0.11 0.00 91 1015.8
20260901063446 80 202 0.0 0.0 0.00 0.11 0.00 90 1015.5
20260901062447 80 202 0.0 0.0 0.00 0.11 0.00 89 1015.7
20260901061544 80 202 0.0 0.0 0.00 0.11 0.00 90 1015.7
20260901054646 80 202 0.0 0.0 0.00 0.11 0.00 89 1016.0
20260901053744 80 202 0.0 0.0 0.00 0.11 0.00 89 1015.9
20260901052747 80 202 0.0 0.0 0.00 0.11 0.00 88 1016.0
20260901051845 81 202 0.0 0.0 0.00 0.11 0.00 89 1015.8